Time,TemperatureF,DewpointF,PressureIn,WindDirection,WindDirectionDegrees,WindSpeedMPH,WindSpeedGustMPH,Humidity,HourlyPrecipIn,Conditions,Clouds,dailyrainin,SoftwareType,DateUTC
2013-04-17 00:00:00,72.9,71.4,29.84,ESE,123,5.8,5.8,95,0.00,CLR,,0.00,WeatherDisplay:10.37,2013-04-17 05:00:00,
2013-04-17 00:05:00,72.9,71.4,29.84,SE,135,11.5,11.5,95,0.00,CLR,,0.00,WeatherDisplay:10.37,2013-04-17 05:05:00,
2013-04-17 00:10:00,72.9,71.4,29.84,SE,125,10.4,10.4,95,0.00,CLR,,0.00,WeatherDisplay:10.37,2013-04-17 05:10:00,
2013-04-17 00:15:00,72.9,71.4,29.84,SE,133,11.0,11.0,95,0.00,CLR,,0.00,WeatherDisplay:10.37,2013-04-17 05:15:00,
2013-04-17 00:20:00,73.0,71.5,29.85,SE,125,10.4,10.4,95,0.00,CLR,,0.00,WeatherDisplay:10.37,2013-04-17 05:20:00,
2013-04-17 00:25:00,73.0,71.5,29.85,ESE,120,10.4,10.4,95,0.00,CLR,,0.00,WeatherDisplay:10.37,2013-04-17 05:25:00,
2013-04-17 00:30:00,73.1,71.6,29.85,SE,138,6.9,6.9,95,0.00,CLR,,0.00,WeatherDisplay:10.37,2013-04-17 05:30:00,
2013-04-17 00:35:00,73.1,71.6,29.85,SSE,149,10.4,10.4,95,0.00,CLR,,0.00,WeatherDisplay:10.37,2013-04-17 05:35:00,
2013-04-17 00:40:00,73.1,71.6,29.84,SSE,164,8.1,8.1,95,0.00,CLR,,0.00,WeatherDisplay:10.37,2013-04-17 05:40:00,
2013-04-17 00:45:00,73.1,71.6,29.84,SE,143,9.2,9.2,95,0.00,CLR,,0.00,WeatherDisplay:10.37,2013-04-17 05:45:00,
2013-04-17 00:50:00,73.1,71.6,29.84,SSE,153,11.5,11.5,95,0.00,CLR,,0.00,WeatherDisplay:10.37,2013-04-17 05:50:00,
2013-04-17 00:55:00,73.2,71.7,29.84,SE,134,6.9,6.9,95,0.00,CLR,,0.00,WeatherDisplay:10.37,2013-04-17 05:55:00,
2013-04-17 01:00:00,73.2,71.7,29.84,SE,124,10.4,10.4,95,0.00,CLR,,0.00,WeatherDisplay:10.37,2013-04-17 06:00:00,
2013-04-17 01:05:00,73.3,71.8,29.84,SSE,156,9.2,9.2,95,0.00,CLR,,0.00,WeatherDisplay:10.37,2013-04-17 06:05:00,
2013-04-17 01:10:00,73.3,71.8,29.85,SSE,152,9.2,9.2,95,0.00,CLR,,0.00,WeatherDisplay:10.37,2013-04-17 06:10:00,
2013-04-17 01:15:00,73.3,71.8,29.84,SE,129,11.5,11.5,95,0.00,CLR,,0.00,WeatherDisplay:10.37,2013-04-17 06:15:00,
2013-04-17 01:20:00,73.3,71.8,29.84,ESE,114,12.7,12.7,95,0.00,CLR,,0.00,WeatherDisplay:10.37,2013-04-17 06:20:00,
2013-04-17 01:25:00,73.3,71.8,29.83,ESE,121,11.5,11.5,95,0.00,CLR,,0.00,WeatherDisplay:10.37,2013-04-17 06:25:00,
2013-04-17 01:30:00,73.3,71.8,29.83,SE,139,9.2,9.2,95,0.00,CLR,,0.00,WeatherDisplay:10.37,2013-04-17 06:30:00,
2013-04-17 01:35:00,73.3,71.8,29.83,SE,124,9.2,9.2,95,0.00,CLR,,0.00,WeatherDisplay:10.37,2013-04-17 06:35:00,
2013-04-17 01:40:00,73.4,71.9,29.84,East,92,6.9,6.9,95,0.00,CLR,,0.00,WeatherDisplay:10.37,2013-04-17 06:40:00,
2013-04-17 01:45:00,73.4,71.9,29.83,ESE,116,9.2,9.2,95,0.00,CLR,,0.00,WeatherDisplay:10.37,2013-04-17 06:45:00,
2013-04-17 01:50:00,73.4,71.6,29.83,ESE,123,9.2,9.2,94,0.00,CLR,,0.00,WeatherDisplay:10.37,2013-04-17 06:50:00,
2013-04-17 01:55:00,73.5,71.7,29.83,SE,135,10.4,10.4,94,0.00,CLR,,0.00,WeatherDisplay:10.37,2013-04-17 06:55:00,
2013-04-17 02:00:00,73.5,71.7,29.83,SE,128,8.1,8.1,94,0.00,CLR,,0.00,WeatherDisplay:10.37,2013-04-17 07:00:00,
2013-04-17 02:05:00,73.5,71.7,29.83,SSE,160,10.4,10.4,94,0.00,CLR,,0.00,WeatherDisplay:10.37,2013-04-17 07:05:00,
2013-04-17 02:10:00,73.6,71.8,29.83,SE,136,11.5,11.5,94,0.00,CLR,,0.00,WeatherDisplay:10.37,2013-04-17 07:10:00,
2013-04-17 02:15:00,73.6,71.8,29.82,SE,125,11.5,11.5,94,0.00,CLR,,0.00,WeatherDisplay:10.37,2013-04-17 07:15:00,
2013-04-17 02:20:00,73.6,71.8,29.82,SE,138,9.2,9.2,94,0.00,CLR,,0.00,WeatherDisplay:10.37,2013-04-17 07:20:00,
2013-04-17 02:25:00,73.6,71.8,29.82,SE,129,11.5,11.5,94,0.00,CLR,,0.00,WeatherDisplay:10.37,2013-04-17 07:25:00,
2013-04-17 02:30:00,73.6,71.8,29.82,SE,134,12.7,12.7,94,0.00,CLR,,0.00,WeatherDisplay:10.37,2013-04-17 07:30:00,
2013-04-17 02:35:00,73.7,71.9,29.82,SSE,150,10.4,10.4,94,0.00,CLR,,0.00,WeatherDisplay:10.37,2013-04-17 07:35:00,
2013-04-17 02:40:00,73.7,71.9,29.82,SSE,151,8.1,8.1,94,0.00,CLR,,0.00,WeatherDisplay:10.37,2013-04-17 07:40:00,
2013-04-17 02:45:00,73.7,71.5,29.82,South,169,11.5,11.5,93,0.00,CLR,,0.00,WeatherDisplay:10.37,2013-04-17 07:45:00,
2013-04-17 02:50:00,73.7,71.5,29.82,SE,140,6.9,7.5,93,0.00,CLR,,0.00,WeatherDisplay:10.37,2013-04-17 07:50:00,
2013-04-17 02:55:00,73.7,71.5,29.82,SE,131,9.2,9.2,93,0.00,CLR,,0.00,WeatherDisplay:10.37,2013-04-17 07:55:00,
2013-04-17 03:00:00,73.7,71.5,29.82,SSE,147,12.7,12.7,93,0.00,CLR,,0.00,WeatherDisplay:10.37,2013-04-17 08:00:00,
2013-04-17 03:05:00,73.7,71.5,29.81,SSE,147,13.8,13.8,93,0.00,CLR,,0.00,WeatherDisplay:10.37,2013-04-17 08:05:00,
2013-04-17 03:10:00,73.7,71.5,29.81,SSE,162,9.2,9.2,93,0.00,CLR,,0.00,WeatherDisplay:10.37,2013-04-17 08:10:00,
2013-04-17 03:15:00,73.7,71.5,29.81,East,90,8.1,8.1,93,0.00,CLR,,0.00,WeatherDisplay:10.37,2013-04-17 08:15:00,
2013-04-17 03:20:00,73.7,71.5,29.81,SE,129,9.2,9.2,93,0.00,CLR,,0.00,WeatherDisplay:10.37,2013-04-17 08:20:00,
2013-04-17 03:25:00,73.7,71.5,29.81,SSE,151,17.3,17.3,93,0.00,CLR,,0.00,WeatherDisplay:10.37,2013-04-17 08:25:00,
2013-04-17 03:30:00,73.8,71.6,29.81,SSE,148,16.1,16.1,93,0.00,CLR,,0.00,WeatherDisplay:10.37,2013-04-17 08:30:00,
2013-04-17 03:35:00,73.7,71.5,29.81,SE,139,12.7,12.7,93,0.00,CLR,,0.00,WeatherDisplay:10.37,2013-04-17 08:35:00,
2013-04-17 03:40:00,73.8,71.6,29.81,ESE,114,15.0,15.0,93,0.00,CLR,,0.00,WeatherDisplay:10.37,2013-04-17 08:40:00,
2013-04-17 03:45:00,73.8,71.3,29.81,SE,134,12.7,12.7,92,0.00,CLR,,0.00,WeatherDisplay:10.37,2013-04-17 08:45:00,
2013-04-17 03:50:00,73.8,71.3,29.81,ESE,108,11.5,11.5,92,0.00,CLR,,0.00,WeatherDisplay:10.37,2013-04-17 08:50:00,
2013-04-17 03:55:00,73.8,71.3,29.81,SE,136,13.0,13.0,92,0.00,CLR,,0.00,WeatherDisplay:10.37,2013-04-17 08:55:00,
2013-04-17 04:00:00,73.8,71.3,29.81,SE,132,18.4,18.4,92,0.00,CLR,,0.00,WeatherDisplay:10.37,2013-04-17 09:00:00,
2013-04-17 04:05:00,73.9,71.4,29.81,SE,146,13.8,13.8,92,0.00,CLR,,0.00,WeatherDisplay:10.37,2013-04-17 09:05:00,
2013-04-17 04:10:00,73.8,71.3,29.81,SE,133,11.5,11.5,92,0.00,CLR,,0.00,WeatherDisplay:10.37,2013-04-17 09:10:00,
2013-04-17 04:15:00,73.8,71.3,29.81,SE,124,13.8,13.8,92,0.00,CLR,,0.00,WeatherDisplay:10.37,2013-04-17 09:15:00,
2013-04-17 04:20:00,73.8,71.3,29.81,SE,124,12.7,12.7,92,0.00,CLR,,0.00,WeatherDisplay:10.37,2013-04-17 09:20:00,
2013-04-17 04:25:00,73.8,71.3,29.82,SSE,149,12.7,12.7,92,0.00,CLR,,0.00,WeatherDisplay:10.37,2013-04-17 09:25:00,
2013-04-17 04:30:00,73.8,71.3,29.81,SE,131,15.0,15.0,92,0.00,CLR,,0.00,WeatherDisplay:10.37,2013-04-17 09:30:00,
2013-04-17 04:35:00,73.8,71.3,29.82,SE,133,12.7,12.7,92,0.00,CLR,,0.00,WeatherDisplay:10.37,2013-04-17 09:35:00,
2013-04-17 04:40:00,73.7,71.2,29.82,SE,127,11.5,11.5,92,0.00,CLR,,0.00,WeatherDisplay:10.37,2013-04-17 09:40:00,
2013-04-17 04:45:00,73.7,71.2,29.82,SE,146,15.0,15.0,92,0.00,CLR,,0.00,WeatherDisplay:10.37,2013-04-17 09:45:00,
2013-04-17 04:50:00,73.7,70.9,29.82,SE,127,16.1,16.1,91,0.00,CLR,,0.00,WeatherDisplay:10.37,2013-04-17 09:50:00,
2013-04-17 04:55:00,73.6,70.8,29.82,SE,134,10.4,10.4,91,0.00,CLR,,0.00,WeatherDisplay:10.37,2013-04-17 09:55:00,
2013-04-17 05:00:00,73.5,71.0,29.82,ESE,119,13.8,13.8,92,0.00,CLR,,0.00,WeatherDisplay:10.37,2013-04-17 10:00:00,
2013-04-17 05:05:00,73.5,71.0,29.82,SE,129,12.7,12.7,92,0.00,CLR,,0.00,WeatherDisplay:10.37,2013-04-17 10:05:00,
2013-04-17 05:10:00,73.5,71.0,29.81,SE,125,17.3,17.3,92,0.00,CLR,,0.00,WeatherDisplay:10.37,2013-04-17 10:10:00,
2013-04-17 05:15:00,73.5,70.7,29.81,SE,145,9.2,9.2,91,0.00,CLR,,0.00,WeatherDisplay:10.37,2013-04-17 10:15:00,
2013-04-17 05:20:00,73.4,70.6,29.81,SE,125,12.7,12.7,91,0.00,CLR,,0.00,WeatherDisplay:10.37,2013-04-17 10:20:00,
2013-04-17 05:25:00,73.3,70.5,29.81,SE,136,13.8,13.8,91,0.00,CLR,,0.00,WeatherDisplay:10.37,2013-04-17 10:25:00,
2013-04-17 05:30:00,73.3,70.8,29.81,SSE,156,13.8,13.8,92,0.00,CLR,,0.00,WeatherDisplay:10.37,2013-04-17 10:30:00,
2013-04-17 05:35:00,73.2,70.7,29.81,ESE,109,13.8,13.8,92,0.00,CLR,,0.00,WeatherDisplay:10.37,2013-04-17 10:35:00,
2013-04-17 05:40:00,73.2,70.4,29.81,SE,133,11.5,11.5,91,0.00,CLR,,0.00,WeatherDisplay:10.37,2013-04-17 10:40:00,
2013-04-17 05:45:00,73.2,70.4,29.81,SE,124,12.0,12.0,91,0.00,CLR,,0.00,WeatherDisplay:10.37,2013-04-17 10:45:00,
2013-04-17 05:50:00,73.2,70.4,29.81,SE,130,13.8,13.8,91,0.00,CLR,,0.00,WeatherDisplay:10.37,2013-04-17 10:50:00,
2013-04-17 05:55:00,73.1,70.3,29.81,SE,133,11.5,11.5,91,0.00,CLR,,0.00,WeatherDisplay:10.37,2013-04-17 10:55:00,
2013-04-17 06:00:00,73.1,70.3,29.81,ESE,114,9.2,9.2,91,0.00,CLR,,0.00,WeatherDisplay:10.37,2013-04-17 11:00:00,
2013-04-17 06:05:00,73.1,70.6,29.81,ESE,115,10.4,10.4,92,0.00,CLR,,0.00,WeatherDisplay:10.37,2013-04-17 11:05:00,
2013-04-17 06:10:00,73.1,70.6,29.81,SE,129,10.0,10.0,92,0.00,CLR,,0.00,WeatherDisplay:10.37,2013-04-17 11:10:00,
2013-04-17 06:15:00,73.1,70.3,29.81,SE,129,9.2,9.2,91,0.00,CLR,,0.00,WeatherDisplay:10.37,2013-04-17 11:15:00,
2013-04-17 06:20:00,73.0,70.5,29.81,SE,129,10.4,10.4,92,0.00,CLR,,0.00,WeatherDisplay:10.37,2013-04-17 11:20:00,
2013-04-17 06:25:00,73.0,70.5,29.82,SE,146,11.5,11.5,92,0.00,CLR,,0.00,WeatherDisplay:10.37,2013-04-17 11:25:00,
2013-04-17 06:30:00,72.9,70.4,29.82,East,82,12.7,12.7,92,0.00,CLR,,0.00,WeatherDisplay:10.37,2013-04-17 11:30:00,
2013-04-17 06:35:00,72.9,70.1,29.82,SE,136,5.0,5.0,91,0.00,CLR,,0.00,WeatherDisplay:10.37,2013-04-17 11:35:00,
2013-04-17 06:40:00,72.9,70.1,29.82,SSE,148,5.8,5.8,91,0.00,CLR,,0.00,WeatherDisplay:10.37,2013-04-17 11:40:00,
2013-04-17 06:45:00,72.9,70.1,29.82,SE,142,11.5,11.5,91,0.00,CLR,,0.00,WeatherDisplay:10.37,2013-04-17 11:45:00,
2013-04-17 06:50:00,72.9,70.1,29.83,SE,142,9.2,9.2,91,0.00,CLR,,0.00,WeatherDisplay:10.37,2013-04-17 11:50:00,
2013-04-17 06:55:00,72.9,70.1,29.83,SE,139,6.0,6.0,91,0.00,CLR,,0.00,WeatherDisplay:10.37,2013-04-17 11:55:00,
2013-04-17 07:00:00,72.9,70.1,29.83,SE,133,6.9,6.9,91,0.00,CLR,,0.00,WeatherDisplay:10.37,2013-04-17 12:00:00,
2013-04-17 07:05:00,72.8,70.0,29.83,SE,139,9.2,9.2,91,0.00,CLR,,0.00,WeatherDisplay:10.37,2013-04-17 12:05:00,
2013-04-17 07:10:00,72.9,70.1,29.83,SE,131,9.2,9.2,91,0.00,CLR,,0.00,WeatherDisplay:10.37,2013-04-17 12:10:00,
2013-04-17 07:15:00,72.8,70.0,29.83,SE,127,10.4,10.4,91,0.00,CLR,,0.00,WeatherDisplay:10.37,2013-04-17 12:15:00,
2013-04-17 07:20:00,72.8,70.0,29.84,SE,146,7.0,7.0,91,0.00,CLR,,0.00,WeatherDisplay:10.37,2013-04-17 12:20:00,
2013-04-17 07:25:00,72.8,70.0,29.84,SSE,150,9.2,9.2,91,0.00,CLR,,0.00,WeatherDisplay:10.37,2013-04-17 12:25:00,
2013-04-17 07:30:00,72.8,70.0,29.83,SE,125,11.5,11.5,91,0.00,CLR,,0.00,WeatherDisplay:10.37,2013-04-17 12:30:00,
2013-04-17 07:35:00,72.8,70.0,29.83,SE,133,15.0,15.0,91,0.00,CLR,,0.00,WeatherDisplay:10.37,2013-04-17 12:35:00,
2013-04-17 07:40:00,72.8,70.0,29.83,SE,129,6.0,6.0,91,0.00,CLR,,0.00,WeatherDisplay:10.37,2013-04-17 12:40:00,
2013-04-17 07:45:00,72.8,70.0,29.83,SE,146,11.5,11.5,91,0.00,CLR,,0.00,WeatherDisplay:10.37,2013-04-17 12:45:00,
2013-04-17 07:50:00,72.9,69.8,29.83,SSE,150,11.5,11.5,90,0.00,CLR,,0.00,WeatherDisplay:10.37,2013-04-17 12:50:00,
2013-04-17 07:55:00,72.9,69.8,29.83,ESE,109,6.9,6.9,90,0.00,CLR,,0.00,WeatherDisplay:10.37,2013-04-17 12:55:00,
2013-04-17 08:00:00,73.0,69.9,29.82,SE,125,11.5,11.5,90,0.00,CLR,,0.00,WeatherDisplay:10.37,2013-04-17 13:00:00,
2013-04-17 08:05:00,73.1,70.0,29.83,ESE,116,11.5,11.5,90,0.00,CLR,,0.00,WeatherDisplay:10.37,2013-04-17 13:05:00,
2013-04-17 08:10:00,73.1,70.0,29.83,SE,126,5.8,5.8,90,0.00,CLR,,0.00,WeatherDisplay:10.37,2013-04-17 13:10:00,
2013-04-17 08:15:00,73.2,70.1,29.83,SE,146,8.1,8.1,90,0.00,CLR,,0.00,WeatherDisplay:10.37,2013-04-17 13:15:00,
2013-04-17 08:20:00,73.2,70.1,29.83,SE,131,9.2,9.2,90,0.00,CLR,,0.00,WeatherDisplay:10.37,2013-04-17 13:20:00,
2013-04-17 08:25:00,73.3,70.2,29.83,SE,144,11.5,11.5,90,0.00,CLR,,0.00,WeatherDisplay:10.37,2013-04-17 13:25:00,
2013-04-17 08:30:00,73.3,70.2,29.82,ENE,77,5.8,5.8,90,0.00,CLR,,0.00,WeatherDisplay:10.37,2013-04-17 13:30:00,
2013-04-17 08:35:00,73.3,70.2,29.83,SE,127,9.2,9.2,90,0.00,CLR,,0.00,WeatherDisplay:10.37,2013-04-17 13:35:00,
2013-04-17 08:40:00,73.4,70.3,29.83,SSE,150,11.5,11.5,90,0.00,CLR,,0.00,WeatherDisplay:10.37,2013-04-17 13:40:00,
2013-04-17 08:45:00,73.5,70.4,29.83,SE,131,8.0,8.0,90,0.00,CLR,,0.00,WeatherDisplay:10.37,2013-04-17 13:45:00,
2013-04-17 08:50:00,73.6,70.2,29.83,SE,129,9.2,9.2,89,0.00,CLR,,0.00,WeatherDisplay:10.37,2013-04-17 13:50:00,
2013-04-17 08:55:00,73.8,70.4,29.83,SE,131,11.5,11.5,89,0.00,CLR,,0.00,WeatherDisplay:10.37,2013-04-17 13:55:00,
2013-04-17 09:00:00,73.9,70.5,29.83,ESE,121,11.5,11.5,89,0.00,CLR,,0.00,WeatherDisplay:10.37,2013-04-17 14:00:00,
2013-04-17 09:05:00,74.1,70.3,29.83,ESE,116,13.8,13.8,88,0.00,CLR,,0.00,WeatherDisplay:10.37,2013-04-17 14:05:00,
2013-04-17 09:10:00,74.2,70.4,29.82,ESE,117,12.7,12.7,88,0.00,CLR,,0.00,WeatherDisplay:10.37,2013-04-17 14:10:00,
2013-04-17 09:15:00,74.4,70.6,29.82,ESE,114,12.7,12.7,88,0.00,CLR,,0.00,WeatherDisplay:10.37,2013-04-17 14:15:00,
2013-04-17 09:20:00,74.5,70.7,29.82,SE,125,11.5,11.5,88,0.00,CLR,,0.00,WeatherDisplay:10.37,2013-04-17 14:20:00,
2013-04-17 09:25:00,74.9,70.8,29.82,ESE,123,15.0,15.0,87,0.00,CLR,,0.00,WeatherDisplay:10.37,2013-04-17 14:25:00,
2013-04-17 09:30:00,75.0,70.9,29.82,SE,129,11.5,11.5,87,0.00,CLR,,0.00,WeatherDisplay:10.37,2013-04-17 14:30:00,
2013-04-17 09:35:00,75.1,70.6,29.82,ESE,118,12.7,12.7,86,0.00,CLR,,0.00,WeatherDisplay:10.37,2013-04-17 14:35:00,
2013-04-17 09:40:00,75.4,70.9,29.82,SE,136,10.4,10.4,86,0.00,CLR,,0.00,WeatherDisplay:10.37,2013-04-17 14:40:00,
2013-04-17 09:45:00,75.5,70.7,29.82,SE,124,15.0,15.0,85,0.00,CLR,,0.00,WeatherDisplay:10.37,2013-04-17 14:45:00,
2013-04-17 09:50:00,75.6,70.8,29.82,SSE,150,9.2,9.2,85,0.00,CLR,,0.00,WeatherDisplay:10.37,2013-04-17 14:50:00,
2013-04-17 09:55:00,75.7,70.5,29.82,SE,127,12.7,12.7,84,0.00,CLR,,0.00,WeatherDisplay:10.37,2013-04-17 14:55:00,
2013-04-17 10:00:00,75.6,70.4,29.82,ESE,122,18.4,18.4,84,0.00,CLR,,0.00,WeatherDisplay:10.37,2013-04-17 15:00:00,
2013-04-17 10:05:00,75.8,70.3,29.82,SE,146,16.1,16.1,83,0.00,CLR,,0.00,WeatherDisplay:10.37,2013-04-17 15:05:00,
2013-04-17 10:10:00,76.2,70.7,29.82,SSE,148,11.5,11.5,83,0.00,CLR,,0.00,WeatherDisplay:10.37,2013-04-17 15:10:00,
2013-04-17 10:15:00,76.6,70.7,29.82,ESE,118,13.8,13.8,82,0.00,CLR,,0.00,WeatherDisplay:10.37,2013-04-17 15:15:00,
2013-04-17 10:20:00,76.6,70.7,29.81,SE,136,12.7,12.7,82,0.00,CLR,,0.00,WeatherDisplay:10.37,2013-04-17 15:20:00,
2013-04-17 10:25:00,76.8,70.5,29.82,South,181,13.0,13.0,81,0.00,CLR,,0.00,WeatherDisplay:10.37,2013-04-17 15:25:00,
2013-04-17 10:30:00,76.7,70.4,29.82,SE,131,10.4,10.4,81,0.00,CLR,,0.00,WeatherDisplay:10.37,2013-04-17 15:30:00,
2013-04-17 10:36:00,77.0,71.1,29.81,ESE,114,11.5,11.5,82,0.00,CLR,,0.00,WeatherDisplay:10.37,2013-04-17 15:36:00,
2013-04-17 10:41:00,77.0,70.0,29.81,ESE,106,15.0,15.0,79,0.00,CLR,,0.00,WeatherDisplay:10.37,2013-04-17 15:41:00,
2013-04-17 10:46:00,77.3,70.6,29.81,SSE,153,11.5,11.5,80,0.00,CLR,,0.00,WeatherDisplay:10.37,2013-04-17 15:46:00,
2013-04-17 10:51:00,77.5,70.5,29.81,SE,142,19.6,19.6,79,0.00,CLR,,0.00,WeatherDisplay:10.37,2013-04-17 15:51:00,
2013-04-17 10:56:00,77.7,71.0,29.81,SSE,156,15.0,15.0,80,0.00,CLR,,0.00,WeatherDisplay:10.37,2013-04-17 15:56:00,
2013-04-17 11:01:00,78.0,70.6,29.81,SSE,152,15.0,15.0,78,0.00,CLR,,0.00,WeatherDisplay:10.37,2013-04-17 16:01:00,
2013-04-17 11:06:00,77.8,70.4,29.81,SE,138,16.1,16.1,78,0.00,CLR,,0.00,WeatherDisplay:10.37,2013-04-17 16:06:00,
2013-04-17 11:11:00,77.8,70.4,29.81,South,172,17.3,17.3,78,0.00,CLR,,0.00,WeatherDisplay:10.37,2013-04-17 16:11:00,
2013-04-17 11:16:00,78.0,70.6,29.80,ESE,119,17.3,17.3,78,0.00,CLR,,0.00,WeatherDisplay:10.37,2013-04-17 16:16:00,
2013-04-17 11:21:00,78.5,70.7,29.80,SSE,163,17.3,17.3,77,0.00,CLR,,0.00,WeatherDisplay:10.37,2013-04-17 16:21:00,
2013-04-17 11:26:00,78.4,70.2,29.80,SSE,156,19.6,19.6,76,0.00,CLR,,0.00,WeatherDisplay:10.37,2013-04-17 16:26:00,
2013-04-17 11:31:00,78.7,70.5,29.80,SE,136,18.4,18.4,76,0.00,CLR,,0.00,WeatherDisplay:10.37,2013-04-17 16:31:00,
2013-04-17 11:36:00,79.0,70.4,29.80,SE,129,13.8,13.8,75,0.00,CLR,,0.00,WeatherDisplay:10.37,2013-04-17 16:36:00,
2013-04-17 11:41:00,79.2,70.6,29.80,SE,136,13.8,13.8,75,0.00,CLR,,0.00,WeatherDisplay:10.37,2013-04-17 16:41:00,
2013-04-17 11:46:00,79.6,71.0,29.80,SE,139,18.4,18.4,75,0.00,CLR,,0.00,WeatherDisplay:10.37,2013-04-17 16:46:00,
2013-04-17 11:51:00,79.9,70.9,29.79,South,183,17.3,17.3,74,0.00,CLR,,0.00,WeatherDisplay:10.37,2013-04-17 16:51:00,
2013-04-17 11:56:00,80.0,71.4,29.79,SE,146,18.4,18.4,75,0.00,CLR,,0.00,WeatherDisplay:10.37,2013-04-17 16:56:00,
2013-04-17 12:01:00,80.3,70.4,29.79,SE,138,21.9,21.9,72,0.00,CLR,,0.00,WeatherDisplay:10.37,2013-04-17 17:01:00,
2013-04-17 12:06:00,79.9,70.5,29.79,SE,143,12.7,12.7,73,0.00,CLR,,0.00,WeatherDisplay:10.37,2013-04-17 17:06:00,
2013-04-17 12:11:00,80.3,70.4,29.78,SSE,162,18.4,18.4,72,0.00,CLR,,0.00,WeatherDisplay:10.37,2013-04-17 17:11:00,
2013-04-17 12:16:00,80.0,70.2,29.78,SE,142,19.6,19.6,72,0.00,CLR,,0.00,WeatherDisplay:10.37,2013-04-17 17:16:00,
2013-04-17 12:21:00,79.9,70.1,29.78,SE,128,17.3,17.3,72,0.00,CLR,,0.00,WeatherDisplay:10.37,2013-04-17 17:21:00,
2013-04-17 12:26:00,80.2,70.8,29.78,SE,128,13.8,13.8,73,0.00,CLR,,0.00,WeatherDisplay:10.37,2013-04-17 17:26:00,
2013-04-17 12:31:00,80.7,70.8,29.78,SSE,157,19.6,19.6,72,0.00,CLR,,0.00,WeatherDisplay:10.37,2013-04-17 17:31:00,
2013-04-17 12:36:00,80.6,70.7,29.78,SE,125,16.1,16.1,72,0.00,CLR,,0.00,WeatherDisplay:10.37,2013-04-17 17:36:00,
2013-04-17 12:41:00,80.7,71.2,29.77,SE,129,17.3,17.3,73,0.00,CLR,,0.00,WeatherDisplay:10.37,2013-04-17 17:41:00,
2013-04-17 12:46:00,80.3,70.4,29.77,SSE,148,17.3,17.3,72,0.00,CLR,,0.00,WeatherDisplay:10.37,2013-04-17 17:46:00,
2013-04-17 12:51:00,80.4,70.9,29.77,SE,135,19.6,19.6,73,0.00,CLR,,0.00,WeatherDisplay:10.37,2013-04-17 17:51:00,
2013-04-17 12:56:00,80.2,70.8,29.76,SSE,150,20.7,20.7,73,0.00,CLR,,0.00,WeatherDisplay:10.37,2013-04-17 17:56:00,
2013-04-17 13:01:00,80.5,71.4,29.76,SSE,153,15.0,15.0,74,0.00,CLR,,0.00,WeatherDisplay:10.37,2013-04-17 18:01:00,
2013-04-17 13:06:00,80.4,70.5,29.76,SSE,150,20.7,20.7,72,0.00,CLR,,0.00,WeatherDisplay:10.37,2013-04-17 18:06:00,
2013-04-17 13:11:00,79.9,70.5,29.76,SE,135,21.9,21.9,73,0.00,CLR,,0.00,WeatherDisplay:10.37,2013-04-17 18:11:00,
2013-04-17 13:16:00,79.7,71.1,29.76,SE,146,18.4,18.4,75,0.00,CLR,,0.00,WeatherDisplay:10.37,2013-04-17 18:16:00,
2013-04-17 13:21:00,79.5,70.9,29.76,ESE,119,17.3,17.3,75,0.00,CLR,,0.00,WeatherDisplay:10.37,2013-04-17 18:21:00,
2013-04-17 13:26:00,79.8,71.6,29.75,SSE,150,18.4,18.4,76,0.00,CLR,,0.00,WeatherDisplay:10.37,2013-04-17 18:26:00,
2013-04-17 13:31:00,79.7,71.1,29.75,ESE,117,15.0,15.0,75,0.00,CLR,,0.00,WeatherDisplay:10.37,2013-04-17 18:31:00,
2013-04-17 13:36:00,79.3,71.1,29.75,SE,135,15.0,15.0,76,0.00,CLR,,0.00,WeatherDisplay:10.37,2013-04-17 18:36:00,
2013-04-17 13:41:00,79.0,71.2,29.75,SE,140,15.0,15.0,77,0.00,CLR,,0.00,WeatherDisplay:10.37,2013-04-17 18:41:00,
2013-04-17 13:46:00,78.9,71.1,29.75,SE,136,15.0,15.0,77,0.00,CLR,,0.00,WeatherDisplay:10.37,2013-04-17 18:46:00,
2013-04-17 13:51:00,78.9,71.5,29.75,ESE,109,17.3,17.3,78,0.00,CLR,,0.00,WeatherDisplay:10.37,2013-04-17 18:51:00,
2013-04-17 13:56:00,78.8,71.4,29.75,SSE,153,19.6,19.6,78,0.00,CLR,,0.00,WeatherDisplay:10.37,2013-04-17 18:56:00,
2013-04-17 14:01:00,78.6,71.2,29.75,ESE,109,13.8,13.8,78,0.00,CLR,,0.00,WeatherDisplay:10.37,2013-04-17 19:01:00,
2013-04-17 14:06:00,78.5,71.4,29.75,SSE,149,18.4,18.4,79,0.00,CLR,,0.00,WeatherDisplay:10.37,2013-04-17 19:06:00,
2013-04-17 14:11:00,78.3,71.2,29.74,SE,142,15.0,15.0,79,0.00,CLR,,0.00,WeatherDisplay:10.37,2013-04-17 19:11:00,
2013-04-17 14:16:00,78.3,71.6,29.74,SSE,150,10.4,10.4,80,0.00,CLR,,0.00,WeatherDisplay:10.37,2013-04-17 19:16:00,
2013-04-17 14:21:00,78.3,71.6,29.74,SE,124,17.3,17.3,80,0.00,CLR,,0.00,WeatherDisplay:10.37,2013-04-17 19:21:00,
2013-04-17 14:26:00,78.0,71.3,29.74,East,98,17.3,17.3,80,0.00,CLR,,0.00,WeatherDisplay:10.37,2013-04-17 19:26:00,
2013-04-17 14:31:00,77.7,71.4,29.74,South,183,17.0,17.0,81,0.00,CLR,,0.00,WeatherDisplay:10.37,2013-04-17 19:31:00,
2013-04-17 14:36:00,77.4,71.5,29.73,SE,124,17.3,17.3,82,0.00,CLR,,0.00,WeatherDisplay:10.37,2013-04-17 19:36:00,
2013-04-17 14:41:00,77.2,71.6,29.73,SE,125,15.0,15.0,83,0.00,CLR,,0.00,WeatherDisplay:10.37,2013-04-17 19:41:00,
2013-04-17 14:46:00,76.9,71.3,29.73,SE,127,12.7,12.7,83,0.00,CLR,,0.00,WeatherDisplay:10.37,2013-04-17 19:46:00,
2013-04-17 14:51:00,76.7,71.5,29.73,SE,129,11.5,11.5,84,0.00,CLR,,0.00,WeatherDisplay:10.37,2013-04-17 19:51:00,
2013-04-17 14:56:00,76.5,71.7,29.72,SE,124,18.0,18.0,85,0.00,CLR,,0.00,WeatherDisplay:10.37,2013-04-17 19:56:00,
2013-04-17 15:01:00,76.4,71.6,29.71,SSE,153,12.7,12.7,85,0.00,CLR,,0.00,WeatherDisplay:10.37,2013-04-17 20:01:00,
2013-04-17 15:06:00,76.5,71.7,29.71,SE,146,17.3,17.3,85,0.00,CLR,,0.00,WeatherDisplay:10.37,2013-04-17 20:06:00,
2013-04-17 15:11:00,76.3,71.5,29.71,SE,136,11.5,11.5,85,0.00,CLR,,0.00,WeatherDisplay:10.37,2013-04-17 20:11:00,
2013-04-17 15:16:00,75.9,71.8,29.71,ESE,114,14.0,14.0,87,0.00,CLR,,0.00,WeatherDisplay:10.37,2013-04-17 20:16:00,
2013-04-17 15:21:00,75.3,71.5,29.71,ESE,113,11.5,11.5,88,0.00,CLR,,0.00,WeatherDisplay:10.37,2013-04-17 20:21:00,
2013-04-17 15:26:00,74.7,71.6,29.70,ESE,112,12.7,12.7,90,0.00,CLR,,0.00,WeatherDisplay:10.37,2013-04-17 20:26:00,
2013-04-17 15:31:00,74.3,71.5,29.70,SE,145,10.4,10.4,91,0.00,CLR,,0.00,WeatherDisplay:10.37,2013-04-17 20:31:00,
2013-04-17 15:36:00,74.2,71.4,29.70,SE,134,9.2,9.2,91,0.00,CLR,,0.00,WeatherDisplay:10.37,2013-04-17 20:36:00,
2013-04-17 15:41:00,74.1,71.3,29.70,SSE,150,6.9,6.9,91,0.00,CLR,,0.00,WeatherDisplay:10.37,2013-04-17 20:41:00,
2013-04-17 15:46:00,74.1,71.6,29.70,East,87,10.4,10.4,92,0.00,CLR,,0.00,WeatherDisplay:10.37,2013-04-17 20:46:00,
2013-04-17 15:51:00,74.1,71.6,29.70,ESE,122,5.0,5.0,92,0.00,CLR,,0.00,WeatherDisplay:10.37,2013-04-17 20:51:00,
2013-04-17 15:56:00,74.0,71.5,29.69,ESE,121,8.1,8.1,92,0.00,CLR,,0.00,WeatherDisplay:10.37,2013-04-17 20:56:00,
2013-04-17 16:01:00,74.0,71.5,29.69,SSE,154,8.1,8.1,92,0.00,CLR,,0.00,WeatherDisplay:10.37,2013-04-17 21:01:00,
2013-04-17 16:06:00,74.1,71.6,29.69,ESE,121,6.9,6.9,92,0.00,CLR,,0.00,WeatherDisplay:10.37,2013-04-17 21:06:00,
2013-04-17 16:11:00,74.1,71.6,29.69,SE,146,8.1,8.1,92,0.00,CLR,,0.00,WeatherDisplay:10.37,2013-04-17 21:11:00,
2013-04-17 16:16:00,74.0,71.5,29.69,SE,146,9.2,9.2,92,0.00,CLR,,0.00,WeatherDisplay:10.37,2013-04-17 21:16:00,
2013-04-17 16:21:00,73.9,71.4,29.68,South,171,3.5,3.5,92,0.00,CLR,,0.00,WeatherDisplay:10.37,2013-04-17 21:21:00,
2013-04-17 16:26:00,73.8,71.3,29.68,SSE,156,5.8,5.8,92,0.00,CLR,,0.00,WeatherDisplay:10.37,2013-04-17 21:26:00,
2013-04-17 16:31:00,73.8,71.6,29.68,SE,142,3.5,3.5,93,0.00,CLR,,0.00,WeatherDisplay:10.37,2013-04-17 21:31:00,
2013-04-17 16:36:00,73.9,71.7,29.68,SE,141,3.5,3.5,93,0.00,CLR,,0.00,WeatherDisplay:10.37,2013-04-17 21:36:00,
2013-04-17 16:41:00,73.8,71.6,29.68,SSE,147,3.5,3.5,93,0.00,CLR,,0.00,WeatherDisplay:10.37,2013-04-17 21:41:00,
2013-04-17 16:46:00,73.7,71.5,29.68,SSE,154,3.5,3.5,93,0.00,CLR,,0.00,WeatherDisplay:10.37,2013-04-17 21:46:00,
2013-04-17 16:52:00,73.7,71.5,29.67,SE,143,3.5,3.5,93,0.00,CLR,,0.00,WeatherDisplay:10.37,2013-04-17 21:52:00,
2013-04-17 16:57:00,73.7,71.5,29.67,ESE,102,3.5,3.5,93,0.00,CLR,,0.00,WeatherDisplay:10.37,2013-04-17 21:57:00,
2013-04-17 17:02:00,73.8,71.6,29.66,SE,125,6.9,6.9,93,0.00,CLR,,0.00,WeatherDisplay:10.37,2013-04-17 22:02:00,
2013-04-17 17:07:00,73.9,71.7,29.66,ESE,114,5.8,5.8,93,0.00,CLR,,0.00,WeatherDisplay:10.37,2013-04-17 22:07:00,
2013-04-17 17:12:00,74.1,71.9,29.66,ESE,115,9.2,9.2,93,0.00,CLR,,0.00,WeatherDisplay:10.37,2013-04-17 22:12:00,
2013-04-17 17:17:00,74.3,72.1,29.65,East,95,5.8,5.8,93,0.00,CLR,,0.00,WeatherDisplay:10.37,2013-04-17 22:17:00,
2013-04-17 17:22:00,74.5,72.3,29.65,East,100,6.9,6.9,93,0.00,CLR,,0.00,WeatherDisplay:10.37,2013-04-17 22:22:00,
2013-04-17 17:27:00,74.9,72.7,29.65,ESE,103,4.6,4.6,93,0.00,CLR,,0.00,WeatherDisplay:10.37,2013-04-17 22:27:00,
2013-04-17 17:32:00,75.0,72.5,29.64,ESE,121,9.2,9.2,92,0.00,CLR,,0.00,WeatherDisplay:10.37,2013-04-17 22:32:00,
2013-04-17 17:37:00,75.2,72.4,29.64,East,98,6.9,6.9,91,0.00,CLR,,0.00,WeatherDisplay:10.37,2013-04-17 22:37:00,
2013-04-17 17:42:00,75.5,72.7,29.64,East,84,6.0,6.0,91,0.00,CLR,,0.00,WeatherDisplay:10.37,2013-04-17 22:42:00,
2013-04-17 17:47:00,75.7,72.6,29.63,ESE,105,10.4,10.4,90,0.00,CLR,,0.00,WeatherDisplay:10.37,2013-04-17 22:47:00,
2013-04-17 17:52:00,76.3,73.1,29.64,SE,130,8.1,8.1,90,0.00,CLR,,0.00,WeatherDisplay:10.37,2013-04-17 22:52:00,
2013-04-17 17:57:00,76.8,73.3,29.64,ENE,77,9.2,9.2,89,0.00,CLR,,0.00,WeatherDisplay:10.37,2013-04-17 22:57:00,
2013-04-17 18:02:00,77.3,73.5,29.64,ESE,105,9.2,9.2,88,0.00,CLR,,0.00,WeatherDisplay:10.37,2013-04-17 23:02:00,
2013-04-17 18:07:00,77.7,73.2,29.64,ENE,70,10.4,10.4,86,0.00,CLR,,0.00,WeatherDisplay:10.37,2013-04-17 23:07:00,
2013-04-17 18:12:00,77.9,73.0,29.64,East,100,11.5,11.5,85,0.00,CLR,,0.00,WeatherDisplay:10.37,2013-04-17 23:12:00,
2013-04-17 18:17:00,78.2,73.0,29.64,ESE,120,11.5,11.5,84,0.00,CLR,,0.00,WeatherDisplay:10.37,2013-04-17 23:17:00,
2013-04-17 18:22:00,78.4,73.2,29.64,East,101,12.7,12.7,84,0.00,CLR,,0.00,WeatherDisplay:10.37,2013-04-17 23:22:00,
2013-04-17 18:27:00,78.4,72.8,29.64,East,94,11.5,11.5,83,0.00,CLR,,0.00,WeatherDisplay:10.37,2013-04-17 23:27:00,
2013-04-17 18:32:00,78.4,72.8,29.64,East,100,15.0,15.0,83,0.00,CLR,,0.00,WeatherDisplay:10.37,2013-04-17 23:32:00,
2013-04-17 18:37:00,78.3,72.7,29.63,ESE,119,11.5,11.5,83,0.00,CLR,,0.00,WeatherDisplay:10.37,2013-04-17 23:37:00,
2013-04-17 18:42:00,78.3,72.7,29.63,ESE,103,15.0,15.0,83,0.00,CLR,,0.00,WeatherDisplay:10.37,2013-04-17 23:42:00,
2013-04-17 18:47:00,78.3,72.7,29.63,ESE,114,9.2,9.2,83,0.00,CLR,,0.00,WeatherDisplay:10.37,2013-04-17 23:47:00,
2013-04-17 18:52:00,78.3,72.7,29.63,ESE,112,16.1,16.1,83,0.00,CLR,,0.00,WeatherDisplay:10.37,2013-04-17 23:52:00,
2013-04-17 18:57:00,78.2,72.6,29.62,East,92,12.7,12.7,83,0.00,CLR,,0.00,WeatherDisplay:10.37,2013-04-17 23:57:00,
2013-04-17 19:02:00,78.2,72.6,29.62,ESE,118,16.1,16.1,83,0.00,CLR,,0.00,WeatherDisplay:10.37,2013-04-18 00:02:00,
2013-04-17 19:07:00,78.2,72.6,29.63,ESE,121,11.0,11.0,83,0.00,CLR,,0.00,WeatherDisplay:10.37,2013-04-18 00:07:00,
2013-04-17 19:12:00,78.2,72.6,29.63,ESE,115,12.7,12.7,83,0.00,CLR,,0.00,WeatherDisplay:10.37,2013-04-18 00:12:00,
2013-04-17 19:17:00,78.2,72.6,29.63,ESE,120,17.3,17.3,83,0.00,CLR,,0.00,WeatherDisplay:10.37,2013-04-18 00:17:00,
2013-04-17 19:22:00,78.1,72.5,29.63,SE,142,15.0,15.0,83,0.00,CLR,,0.00,WeatherDisplay:10.37,2013-04-18 00:22:00,
2013-04-17 19:27:00,78.0,72.4,29.63,SE,127,17.3,17.3,83,0.00,CLR,,0.00,WeatherDisplay:10.37,2013-04-18 00:27:00,
2013-04-17 19:32:00,78.0,72.4,29.63,ESE,105,19.6,19.6,83,0.00,CLR,,0.00,WeatherDisplay:10.37,2013-04-18 00:32:00,
2013-04-17 19:37:00,77.9,72.3,29.63,East,93,13.8,13.8,83,0.00,CLR,,0.00,WeatherDisplay:10.37,2013-04-18 00:37:00,
2013-04-17 19:42:00,77.9,72.3,29.64,East,85,11.5,11.5,83,0.00,CLR,,0.00,WeatherDisplay:10.37,2013-04-18 00:42:00,
2013-04-17 19:47:00,77.8,72.2,29.64,ESE,122,13.8,13.8,83,0.00,CLR,,0.00,WeatherDisplay:10.37,2013-04-18 00:47:00,
2013-04-17 19:52:00,77.7,72.1,29.64,ESE,121,13.8,13.8,83,0.00,CLR,,0.00,WeatherDisplay:10.37,2013-04-18 00:52:00,
2013-04-17 19:57:00,77.6,72.0,29.64,SE,125,15.0,15.0,83,0.00,CLR,,0.00,WeatherDisplay:10.37,2013-04-18 00:57:00,
2013-04-17 20:02:00,77.5,72.3,29.64,East,98,18.4,18.4,84,0.00,CLR,,0.00,WeatherDisplay:10.37,2013-04-18 01:02:00,
2013-04-17 20:07:00,77.5,72.3,29.64,ESE,116,13.8,13.8,84,0.00,CLR,,0.00,WeatherDisplay:10.37,2013-04-18 01:07:00,
2013-04-17 20:12:00,77.4,72.2,29.64,ESE,110,13.8,13.8,84,0.00,CLR,,0.00,WeatherDisplay:10.37,2013-04-18 01:12:00,
2013-04-17 20:17:00,77.3,72.1,29.64,ESE,112,17.3,17.3,84,0.00,CLR,,0.00,WeatherDisplay:10.37,2013-04-18 01:17:00,
2013-04-17 20:22:00,77.2,72.0,29.64,ESE,108,13.8,13.8,84,0.00,CLR,,0.00,WeatherDisplay:10.37,2013-04-18 01:22:00,
2013-04-17 20:27:00,77.1,72.2,29.65,ESE,108,11.5,11.5,85,0.00,CLR,,0.00,WeatherDisplay:10.37,2013-04-18 01:27:00,
2013-04-17 20:32:00,77.1,72.2,29.65,East,98,16.1,16.1,85,0.00,CLR,,0.00,WeatherDisplay:10.37,2013-04-18 01:32:00,
2013-04-17 20:37:00,77.0,72.1,29.65,ESE,115,10.4,10.4,85,0.00,CLR,,0.00,WeatherDisplay:10.37,2013-04-18 01:37:00,
2013-04-17 20:42:00,77.0,72.1,29.65,ESE,117,11.5,11.5,85,0.00,CLR,,0.00,WeatherDisplay:10.37,2013-04-18 01:42:00,
2013-04-17 20:47:00,77.0,72.1,29.64,ESE,120,15.0,15.0,85,0.00,CLR,,0.00,WeatherDisplay:10.37,2013-04-18 01:47:00,
2013-04-17 20:52:00,77.0,72.1,29.65,East,92,12.7,12.7,85,0.00,CLR,,0.00,WeatherDisplay:10.37,2013-04-18 01:52:00,
2013-04-17 20:57:00,76.9,72.4,29.65,SE,133,13.8,13.8,86,0.00,CLR,,0.00,WeatherDisplay:10.37,2013-04-18 01:57:00,
2013-04-17 21:02:00,76.9,72.4,29.65,SSE,153,15.0,15.0,86,0.00,CLR,,0.00,WeatherDisplay:10.37,2013-04-18 02:02:00,
2013-04-17 21:07:00,76.9,72.4,29.65,ESE,113,13.8,13.8,86,0.00,CLR,,0.00,WeatherDisplay:10.37,2013-04-18 02:07:00,
2013-04-17 21:12:00,76.8,72.6,29.65,ESE,118,12.7,12.7,87,0.00,CLR,,0.00,WeatherDisplay:10.37,2013-04-18 02:12:00,
2013-04-17 21:17:00,76.8,72.6,29.65,ESE,118,9.2,9.2,87,0.00,CLR,,0.00,WeatherDisplay:10.37,2013-04-18 02:17:00,
2013-04-17 21:22:00,76.7,72.5,29.65,ESE,121,12.7,12.7,87,0.00,CLR,,0.00,WeatherDisplay:10.37,2013-04-18 02:22:00,
2013-04-17 21:27:00,76.6,72.8,29.66,South,174,11.5,11.5,88,0.00,CLR,,0.00,WeatherDisplay:10.37,2013-04-18 02:27:00,
2013-04-17 21:32:00,76.6,72.8,29.66,ESE,112,11.5,11.5,88,0.00,CLR,,0.00,WeatherDisplay:10.37,2013-04-18 02:32:00,
2013-04-17 21:37:00,76.6,72.8,29.66,SE,129,15.0,15.0,88,0.00,CLR,,0.00,WeatherDisplay:10.37,2013-04-18 02:37:00,
2013-04-17 21:42:00,76.6,72.8,29.67,ESE,114,9.2,9.2,88,0.00,CLR,,0.00,WeatherDisplay:10.37,2013-04-18 02:42:00,
2013-04-17 21:47:00,76.6,72.8,29.67,SSE,151,17.3,17.3,88,0.00,CLR,,0.00,WeatherDisplay:10.37,2013-04-18 02:47:00,
2013-04-17 21:52:00,76.4,72.9,29.67,SE,131,11.5,11.5,89,0.00,CLR,,0.00,WeatherDisplay:10.37,2013-04-18 02:52:00,
2013-04-17 21:57:00,76.4,72.9,29.67,ESE,115,15.0,15.0,89,0.00,CLR,,0.00,WeatherDisplay:10.37,2013-04-18 02:57:00,
2013-04-17 22:02:00,76.3,72.8,29.67,SE,129,11.5,11.5,89,0.00,CLR,,0.00,WeatherDisplay:10.37,2013-04-18 03:02:00,
2013-04-17 22:07:00,76.3,72.8,29.67,SE,124,19.6,19.6,89,0.00,CLR,,0.00,WeatherDisplay:10.37,2013-04-18 03:07:00,
2013-04-17 22:12:00,76.3,72.8,29.67,SE,133,18.4,18.4,89,0.00,CLR,,0.00,WeatherDisplay:10.37,2013-04-18 03:12:00,
2013-04-17 22:17:00,76.3,72.8,29.67,SE,127,15.0,15.0,89,0.00,CLR,,0.00,WeatherDisplay:10.37,2013-04-18 03:17:00,
2013-04-17 22:22:00,76.3,72.8,29.67,SE,143,15.0,15.0,89,0.00,CLR,,0.00,WeatherDisplay:10.37,2013-04-18 03:22:00,
2013-04-17 22:27:00,76.3,72.5,29.67,ESE,121,18.0,18.0,88,0.00,CLR,,0.00,WeatherDisplay:10.37,2013-04-18 03:27:00,
2013-04-17 22:32:00,76.3,72.5,29.68,ESE,122,11.5,11.5,88,0.00,CLR,,0.00,WeatherDisplay:10.37,2013-04-18 03:32:00,
2013-04-17 22:37:00,76.3,72.5,29.68,SSE,160,13.8,13.8,88,0.00,CLR,,0.00,WeatherDisplay:10.37,2013-04-18 03:37:00,
2013-04-17 22:42:00,76.3,72.5,29.68,SSE,153,16.1,16.1,88,0.00,CLR,,0.00,WeatherDisplay:10.37,2013-04-18 03:42:00,
2013-04-17 22:47:00,76.3,72.5,29.68,SE,126,20.7,20.7,88,0.00,CLR,,0.00,WeatherDisplay:10.37,2013-04-18 03:47:00,
2013-04-17 22:52:00,76.3,72.5,29.68,South,169,19.6,19.6,88,0.00,CLR,,0.00,WeatherDisplay:10.37,2013-04-18 03:52:00,
2013-04-17 22:57:00,76.3,72.1,29.68,SE,146,15.0,15.0,87,0.00,CLR,,0.00,WeatherDisplay:10.37,2013-04-18 03:57:00,
2013-04-17 23:01:00,76.3,72.1,29.68,SSE,153,9.2,9.2,87,0.00,CLR,,0.00,WeatherDisplay:10.37,2013-04-18 04:01:00,
2013-04-17 23:02:00,76.3,72.1,29.68,ESE,123,12.7,12.7,87,0.00,CLR,,0.00,WeatherDisplay:10.37,2013-04-18 04:02:00,
2013-04-17 23:07:00,76.3,72.1,29.68,SE,133,11.5,11.5,87,0.00,CLR,,0.00,WeatherDisplay:10.37,2013-04-18 04:07:00,
2013-04-17 23:12:00,76.3,72.1,29.68,SE,127,9.2,9.2,87,0.00,CLR,,0.00,WeatherDisplay:10.37,2013-04-18 04:12:00,
2013-04-17 23:17:00,76.2,72.0,29.68,East,101,15.0,15.0,87,0.00,CLR,,0.00,WeatherDisplay:10.37,2013-04-18 04:17:00,
2013-04-17 23:22:00,76.2,72.4,29.69,SE,131,10.4,10.4,88,0.00,CLR,,0.00,WeatherDisplay:10.37,2013-04-18 04:22:00,
2013-04-17 23:27:00,76.2,72.4,29.69,SSE,153,16.1,16.1,88,0.00,CLR,,0.00,WeatherDisplay:10.37,2013-04-18 04:27:00,
2013-04-17 23:32:00,76.1,72.3,29.68,SE,127,13.8,13.8,88,0.00,CLR,,0.00,WeatherDisplay:10.37,2013-04-18 04:32:00,
2013-04-17 23:37:00,76.1,72.3,29.68,SE,136,16.1,16.1,88,0.00,CLR,,0.00,WeatherDisplay:10.37,2013-04-18 04:37:00,
2013-04-17 23:42:00,76.1,72.3,29.68,SE,134,19.6,19.6,88,0.00,CLR,,0.00,WeatherDisplay:10.37,2013-04-18 04:42:00,
2013-04-17 23:47:00,76.1,72.3,29.68,SE,133,17.3,17.3,88,0.00,CLR,,0.00,WeatherDisplay:10.37,2013-04-18 04:47:00,
2013-04-17 23:52:00,76.0,72.2,29.68,SE,138,12.7,12.7,88,0.00,CLR,,0.00,WeatherDisplay:10.37,2013-04-18 04:52:00,
2013-04-17 23:57:00,76.0,71.8,29.68,ESE,122,15.0,15.0,87,0.00,CLR,,0.00,WeatherDisplay:10.37,2013-04-18 04:57:00,